Погода в Пенафиеле

Португалия     41°11′47″N   8°17′40″W
темп.,
°C
ветер,
м/с
пор.,
м/с
влажн.,
%
обл.,
%
осадки,
мм/ч
давл.,
гПа
погр.,
м
8 мая, сб
сб801:00+10вюв118998 0.0 101812
04:00+10в119199 0.0 101612
07:00+10в1187100 0.0 101518
10:00+17юз125396 0.0 1014536
13:00+22зюз573331 0.0 10121639
16:00+21зюз68340 0.0 10101505
19:00+17юз58510 0.0 1009983
22:00+11ююв23910 0.0 1009112
9 мая, вс
вс901:00+10юв2289100 0.0 100638
04:00+10юв2285100 0.1 100457
07:00+12ююз41294100 8.3 10021105
10:00+12з4686100 4.6 1005799
13:00+14зюз577782 6.9 10061317
16:00+12з588289 2.0 10071102
19:00+12зюз58856 4.1 1008947
22:00+8юз24956 3.1 101092
10 мая, пн
пн1001:00+7ююв229822 5.3 101150
04:00+8ю1397100 1.8 1010129
07:00+7ю259825 3.4 1011163
10:00+11юз358790 1.7 1011722
13:00+13зюз577689 4.2 10111514
16:00+12з687991 2.7 10121364
19:00+10зсз59875 5.4 1013981
22:00+7з289229 1.6 1017270
11 мая, вт
вт1101:00+6ююз229576 2.8 101836
04:00+5ю229736 1.4 101933
07:00+6ю129631 2.1 102139
10:00+11зсз477934 0.9 10221002
13:00+13з686930 2.1 10221404
16:00+15з675471 0.4 10231743
19:00+13з456537 0.6 1024906
22:00+8ююв11887 0.1 102511
12 мая, ср
ср1201:00+8ююв1285100 0.1 102552
04:00+9ююв118098 0.0 102336
07:00+10ююв1381100 0.1 1022155
10:00+10ююв2895100 2.1 1020460
13:00+11ююз159897 11.4 1020321
16:00+15зюз258124 1.0 1019793
19:00+15з467060 1.1 10181003
22:00+10юз229699 0.5 101934